Branson, MO

9:57 AM CDT on May 29, 2017 (GMT -0500)
Branson

Weather History for KBBG - April, 2014

Change the Weather History Date:

Thursday, April 10, 2014

  Actual Average (KHRO) Record (KHRO)
Temperature  
Mean Temperature 70 °F -  
Max Temperature 84 °F 68 °F 96 °F (1930)
Min Temperature 57 °F 44 °F 25 °F (1928)
Cooling Degree Days 6    
Growing Degree Days 20 (Base 50)    
Moisture  
Dew Point 39 °F    
Average Humidity 36    
Maximum Humidity 46    
Minimum Humidity 20    
Precipitation  
Precipitation 0.00 in - - ()
Sea Level Pressure  
Sea Level Pressure 29.91 in    
Wind  
Wind Speed 8 mph (SSW)    
Max Wind Speed 24 mph    
Max Gust Speed 36 mph    
Visibility 10 miles    
Events      
Averages and records for this station are not official NWS values.
T = Trace of Precipitation, MM = Missing Value Source: NWS Daily Summary

Daily Weather History Graph

Daily Weather History Graph

Search for Another Location

Airport or City:

Trip Planner

Search our weather history database for the weather conditions in past years. The results will help you decide how hot, cold, wet, or windy it might be!

Date:

Astronomy

Apr. 10, 2014 Rise Set
Actual Time 6:45 AM CDT 7:42 PM CDT
Civil Twilight 6:19 AM CDT 8:09 PM CDT
Nautical Twilight 5:48 AM CDT 8:40 PM CDT
Astronomical Twilight 5:16 AM CDT 9:12 PM CDT
Moon 3:33 PM CDT (4/10) 4:01 AM CDT (4/10)
Length of Visible Light 13h 49m
Length of Day
12h 56m
Waxing Gibbous, 80% of the Moon is Illuminated
Apr 10
Waxing Gibbous
Apr 15
Full
Apr 22
Last Quarter
Apr 29
New
May 6
First Quarter

Hourly Weather History & Observations

Time (CDT) Temp. Dew Point Humidity Pressure Visibility Wind Dir Wind Speed Gust Speed Precip Events Conditions
12:15 AM 57.2 °F 32.0 °F 38% 29.98 in 10.0 mi SSE 4.6 mph - N/A   Clear
12:35 AM 57.2 °F 32.0 °F 38% 29.97 in 10.0 mi South 5.8 mph - N/A   Clear
12:55 AM 57.2 °F 33.8 °F 41% 29.96 in 10.0 mi South 6.9 mph - N/A   Clear
1:15 AM 57.2 °F 33.8 °F 41% 29.95 in 10.0 mi South 6.9 mph - N/A   Clear
1:35 AM 57.2 °F 33.8 °F 41% 29.95 in 10.0 mi South 5.8 mph - N/A   Clear
1:55 AM 57.2 °F 35.6 °F 44% 29.95 in 10.0 mi South 5.8 mph - N/A   Clear
2:15 AM 57.2 °F 35.6 °F 44% 29.94 in 10.0 mi South 4.6 mph - N/A   Clear
2:35 AM 57.2 °F 35.6 °F 44% 29.94 in 10.0 mi South 4.6 mph - N/A   Clear
2:55 AM 57.2 °F 35.6 °F 44% 29.93 in 10.0 mi South 4.6 mph - N/A   Clear
3:15 AM 59.0 °F 35.6 °F 42% 29.92 in 10.0 mi South 5.8 mph - N/A   Clear
3:35 AM 60.8 °F 35.6 °F 39% 29.92 in 10.0 mi SSW 9.2 mph - N/A   Clear
3:55 AM 60.8 °F 35.6 °F 39% 29.91 in 10.0 mi South 8.1 mph - N/A   Clear
4:15 AM 60.8 °F 35.6 °F 39% 29.91 in 10.0 mi SSW 9.2 mph - N/A   Clear
4:35 AM 60.8 °F 35.6 °F 39% 29.91 in 10.0 mi SSW 8.1 mph - N/A   Clear
4:55 AM 60.8 °F 35.6 °F 39% 29.91 in 10.0 mi SSW 6.9 mph - N/A   Clear
5:15 AM 60.8 °F 37.4 °F 42% 29.91 in 10.0 mi SSW 8.1 mph - N/A   Clear
5:35 AM 60.8 °F 37.4 °F 42% 29.91 in 10.0 mi SSW 8.1 mph - N/A   Clear
5:55 AM 60.8 °F 37.4 °F 42% 29.90 in 10.0 mi SSW 11.5 mph 17.3 mph N/A   Clear
6:15 AM 62.6 °F 37.4 °F 39% 29.90 in 10.0 mi SSW 9.2 mph 17.3 mph N/A   Clear
6:35 AM 62.6 °F 37.4 °F 39% 29.90 in 10.0 mi SW 8.1 mph 18.4 mph N/A   Clear
6:50 AM 62.6 °F 37.4 °F 39% 29.90 in 10.0 mi SSW 10.4 mph - N/A   Partly Cloudy
7:45 AM 64.4 °F 39.2 °F 40% 29.90 in 10.0 mi SSW 11.5 mph 20.7 mph N/A   Partly Cloudy
8:45 AM 68.0 °F 39.2 °F 35% 29.90 in - SSW 17.3 mph 25.3 mph N/A   Partly Cloudy
9:45 AM 71.6 °F 41.0 °F 33% 29.90 in 10.0 mi SW 17.3 mph 25.3 mph N/A   Partly Cloudy
10:50 AM 77.0 °F 41.0 °F 28% 29.90 in 10.0 mi SSW 13.8 mph 32.2 mph N/A   Scattered Clouds
11:50 AM 77.0 °F 41.0 °F 28% 29.89 in 10.0 mi SSW 18.4 mph 25.3 mph N/A   Scattered Clouds
12:50 PM 77.0 °F 39.2 °F 26% 29.88 in 10.0 mi SSW 17.3 mph 25.3 mph N/A   Mostly Cloudy
1:52 PM 80.6 °F 39.2 °F 23% 29.85 in 10.0 mi SSW 17.3 mph 28.8 mph N/A   Mostly Cloudy
2:47 PM 82.4 °F 41.0 °F 23% 29.83 in 10.0 mi SSW 20.7 mph 34.5 mph N/A   Mostly Cloudy
3:46 PM 84.2 °F 42.8 °F 23% 29.82 in 10.0 mi SSW 16.1 mph 27.6 mph N/A   Scattered Clouds
4:54 PM 84.2 °F 39.2 °F 20% 29.83 in 10.0 mi SW 24.2 mph 35.7 mph N/A   Mostly Cloudy
5:48 PM 82.4 °F 39.2 °F 21% 29.85 in 10.0 mi West 13.8 mph 27.6 mph N/A   Scattered Clouds
6:48 PM 80.6 °F 41.0 °F 24% 29.87 in 10.0 mi WSW 15.0 mph 20.7 mph N/A   Mostly Cloudy
7:51 PM 77.0 °F 42.8 °F 29% 29.88 in 10.0 mi SW 6.9 mph - N/A   Mostly Cloudy
8:46 PM 75.2 °F 42.8 °F 31% 29.90 in 10.0 mi SW 6.9 mph - N/A   Overcast
9:15 PM 75.2 °F 44.6 °F 34% 29.92 in 10.0 mi SSW 6.9 mph - N/A   Overcast
9:55 PM 73.4 °F 44.6 °F 36% 29.94 in 10.0 mi SSW 4.6 mph - N/A   Overcast
10:15 PM 73.4 °F 44.6 °F 36% 29.94 in 10.0 mi SW 3.5 mph - N/A   Overcast
10:35 PM 73.4 °F 44.6 °F 36% 29.95 in 10.0 mi Calm Calm - N/A   Overcast
10:55 PM 71.6 °F 44.6 °F 38% 29.95 in 10.0 mi Calm Calm - N/A   Overcast
11:15 PM 69.8 °F 44.6 °F 40% 29.96 in 10.0 mi Calm Calm - N/A   Overcast
11:35 PM 69.8 °F 46.4 °F 43% 29.95 in 10.0 mi West 3.5 mph - N/A   Overcast
11:55 PM 68.0 °F 46.4 °F 46% 29.96 in 10.0 mi Calm Calm - N/A   Overcast